When you browse on this site, cookies collect data to enhance your experience and personalize the content and advertising you see.
Visit our Privacy Policy to learn more. By continuing to use the site, you agree to this use of cookies and data.

Hourly Weather Ravda

Today, 2 July, Thursday

Time Temperature Precipitation Wind Pressure Humidity
00:00 +23°C° 0 mm 2 mps 759 mmHg 93%
01:00 +23°C° 0 mm 2 mps 759 mmHg 94%
02:00 +23°C° 0 mm 2 mps 759 mmHg 95%
03:00 +21°C° 0 mm 2 mps 759 mmHg 95%
04:00 +21°C° 0 mm 2 mps 759 mmHg 95%
05:00 +21°C° 0 mm 2 mps 758 mmHg 95%
06:00 +24°C° 0 mm 2 mps 759 mmHg 88%
07:00 +25°C° 0 mm 3 mps 759 mmHg 81%
08:00 +27°C° 0 mm 3 mps 759 mmHg 74%
09:00 +28°C° 0 mm 3 mps 759 mmHg 67%
10:00 +29°C° 0 mm 4 mps 759 mmHg 60%
11:00 +30°C° 0 mm 4 mps 759 mmHg 53%
12:00 +32°C° 0 mm 4 mps 759 mmHg 53%
13:00 +32°C° 0 mm 4 mps 759 mmHg 52%
14:00 +32°C° 0 mm 4 mps 758 mmHg 52%
15:00 +30°C° 0 mm 4 mps 758 mmHg 53%
16:00 +30°C° 0 mm 4 mps 758 mmHg 54%
17:00 +29°C° 0 mm 4 mps 758 mmHg 56%
18:00 +27°C° 0 mm 4 mps 758 mmHg 63%
19:00 +25°C° 0 mm 3 mps 758 mmHg 71%
20:00 +24°C° 0 mm 3 mps 758 mmHg 79%
21:00 +23°C° 0 mm 2 mps 758 mmHg 82%
22:00 +21°C° 0 mm 2 mps 758 mmHg 85%
23:00 +22°C° 0 mm 1 mps 758 mmHg 88%

Tomorrow, 3 July, Friday

Time Temperature Precipitation Wind Pressure Humidity
00:00 +21°C° 0 mm 1 mps 758 mmHg 88%
01:00 +20°C° 0 mm 2 mps 757 mmHg 88%
02:00 +20°C° 0 mm 2 mps 757 mmHg 88%
03:00 +20°C° 0 mm 2 mps 757 mmHg 88%
04:00 +20°C° 0 mm 2 mps 757 mmHg 88%
05:00 +19°C° 0 mm 2 mps 757 mmHg 88%
06:00 +21°C° 0 mm 2 mps 757 mmHg 81%
07:00 +24°C° 0 mm 2 mps 757 mmHg 73%
08:00 +26°C° 0 mm 2 mps 757 mmHg 66%
09:00 +28°C° 0 mm 2 mps 757 mmHg 61%
10:00 +29°C° 0 mm 2 mps 757 mmHg 56%
11:00 +30°C° 0 mm 3 mps 757 mmHg 51%
12:00 +31°C° 0 mm 3 mps 757 mmHg 51%
13:00 +31°C° 0 mm 3 mps 757 mmHg 52%
14:00 +33°C° 0 mm 4 mps 757 mmHg 52%
15:00 +31°C° 0 mm 3 mps 756 mmHg 55%
16:00 +30°C° 0 mm 3 mps 756 mmHg 58%
17:00 +30°C° 0 mm 3 mps 756 mmHg 60%
18:00 +28°C° 0 mm 3 mps 756 mmHg 69%
19:00 +26°C° 0 mm 2 mps 756 mmHg 78%
20:00 +24°C° 0 mm 2 mps 757 mmHg 87%
21:00 +23°C° 0 mm 1 mps 757 mmHg 87%
22:00 +23°C° 0 mm 1 mps 757 mmHg 88%
23:00 +22°C° 0 mm 1 mps 758 mmHg 88%

Day after tomorrow, 4 July, Saturday

Time Temperature Precipitation Wind Pressure Humidity
00:00 +22°C° 0 mm 1 mps 757 mmHg 88%
01:00 +22°C° 0 mm 1 mps 757 mmHg 87%
02:00 +22°C° 0 mm 1 mps 757 mmHg 87%
03:00 +22°C° 0 mm 1 mps 757 mmHg 87%
04:00 +22°C° 0 mm 1 mps 757 mmHg 86%
05:00 +22°C° 0 mm 1 mps 757 mmHg 86%
06:00 +24°C° 0 mm 1 mps 758 mmHg 79%
07:00 +26°C° 0 mm 1 mps 758 mmHg 72%
08:00 +28°C° 0 mm 1 mps 758 mmHg 65%
09:00 +29°C° 0 mm 1 mps 758 mmHg 60%
10:00 +31°C° 0 mm 2 mps 758 mmHg 55%
11:00 +32°C° 0 mm 2 mps 758 mmHg 50%
12:00 +32°C° 0 mm 2 mps 758 mmHg 49%
13:00 +34°C° 0 mm 3 mps 758 mmHg 49%
14:00 +34°C° 0 mm 4 mps 757 mmHg 49%
15:00 +33°C° 0 mm 3 mps 757 mmHg 51%
16:00 +31°C° 0 mm 3 mps 757 mmHg 54%
17:00 +31°C° 0 mm 3 mps 757 mmHg 56%
18:00 +29°C° 0 mm 2 mps 757 mmHg 65%
19:00 +27°C° 0 mm 2 mps 757 mmHg 73%
20:00 +25°C° 0 mm 1 mps 757 mmHg 81%
21:00 +24°C° 0 mm 1 mps 757 mmHg 81%
22:00 +24°C° 0 mm 1 mps 757 mmHg 82%
23:00 +23°C° 0 mm 1 mps 757 mmHg 82%

5 July, Sunday

Time Temperature Precipitation Wind Pressure Humidity
00:00 +23°C° 0 mm 1 mps 757 mmHg 82%
01:00 +23°C° 0 mm 1 mps 757 mmHg 81%
02:00 +23°C° 0 mm 2 mps 757 mmHg 80%
03:00 +23°C° 0 mm 2 mps 757 mmHg 81%
04:00 +23°C° 0 mm 2 mps 757 mmHg 81%
05:00 +21°C° 0 mm 2 mps 757 mmHg 81%
06:00 +24°C° 0 mm 2 mps 757 mmHg 74%
07:00 +26°C° 0 mm 2 mps 757 mmHg 68%
08:00 +28°C° 0 mm 2 mps 757 mmHg 61%
09:00 +30°C° 0 mm 3 mps 757 mmHg 56%
10:00 +32°C° 0 mm 4 mps 757 mmHg 51%
11:00 +34°C° 0 mm 4 mps 757 mmHg 46%
12:00 +34°C° 0 mm 5 mps 756 mmHg 44%
13:00 +35°C° 0 mm 5 mps 756 mmHg 42%
14:00 +35°C° 0 mm 5 mps 756 mmHg 39%
15:00 +35°C° 0 mm 5 mps 756 mmHg 41%
16:00 +34°C° 0 mm 5 mps 756 mmHg 43%
17:00 +33°C° 0 mm 5 mps 755 mmHg 45%
18:00 +30°C° 0 mm 5 mps 755 mmHg 54%
19:00 +28°C° 0 mm 4 mps 756 mmHg 62%
20:00 +26°C° 0 mm 4 mps 756 mmHg 71%
21:00 +25°C° 0 mm 3 mps 756 mmHg 74%
22:00 +24°C° 0 mm 3 mps 756 mmHg 77%
23:00 +24°C° 0 mm 3 mps 756 mmHg 80%

6 July, Monday

Time Temperature Precipitation Wind Pressure Humidity
00:00 +22°C° 0 mm 3 mps 756 mmHg 79%
01:00 +22°C° 0 mm 3 mps 756 mmHg 77%
02:00 +22°C° 0 mm 4 mps 756 mmHg 76%
03:00 +22°C° 0 mm 4 mps 756 mmHg 75%
04:00 +22°C° 0 mm 4 mps 756 mmHg 74%
05:00 +22°C° 0 mm 4 mps 756 mmHg 74%
06:00 +25°C° 0 mm 4 mps 756 mmHg 68%
07:00 +27°C° 0 mm 4 mps 756 mmHg 63%
08:00 +29°C° 0 mm 4 mps 756 mmHg 58%
09:00 +30°C° 0 mm 5 mps 756 mmHg 55%
10:00 +33°C° 0 mm 6 mps 756 mmHg 52%
11:00 +35°C° 0 mm 7 mps 757 mmHg 49%
12:00 +35°C° 0 mm 7 mps 756 mmHg 49%
13:00 +35°C° 0 mm 7 mps 756 mmHg 49%
14:00 +35°C° 0 mm 7 mps 756 mmHg 49%
15:00 +34°C° 0 mm 7 mps 756 mmHg 50%
16:00 +33°C° 0 mm 7 mps 756 mmHg 52%
17:00 +33°C° 0 mm 6 mps 755 mmHg 54%
18:00 +30°C° 0 mm 5 mps 755 mmHg 61%
19:00 +28°C° 0 mm 4 mps 755 mmHg 69%
20:00 +26°C° 0 mm 3 mps 755 mmHg 76%
21:00 +26°C° 0 mm 3 mps 755 mmHg 76%
22:00 +25°C° 0 mm 3 mps 756 mmHg 76%
23:00 +25°C° 0 mm 3 mps 756 mmHg 76%

7 July, Tuesday

Time Temperature Precipitation Wind Pressure Humidity
00:00 +25°C° 0 mm 3 mps 755 mmHg 76%
01:00 +24°C° 0 mm 3 mps 755 mmHg 77%
02:00 +24°C° 0 mm 3 mps 755 mmHg 77%
03:00 +24°C° 0 mm 3 mps 755 mmHg 78%
04:00 +24°C° 0 mm 3 mps 754 mmHg 78%
05:00 +22°C° 0 mm 3 mps 754 mmHg 79%
06:00 +26°C° 0 mm 3 mps 754 mmHg 72%
07:00 +28°C° 0 mm 3 mps 754 mmHg 65%
08:00 +30°C° 0 mm 3 mps 754 mmHg 59%
09:00 +33°C° 0 mm 3 mps 754 mmHg 52%
10:00 +34°C° 0 mm 4 mps 754 mmHg 46%
11:00 +36°C° 0 mm 4 mps 754 mmHg 40%
12:00 +36°C° 0 mm 4 mps 754 mmHg 40%
13:00 +36°C° 0 mm 4 mps 753 mmHg 40%
14:00 +37°C° 0 mm 5 mps 753 mmHg 40%
15:00 +36°C° 0 mm 4 mps 753 mmHg 43%
16:00 +35°C° 0 mm 4 mps 753 mmHg 47%
17:00 +34°C° 0 mm 4 mps 753 mmHg 50%
18:00 +31°C° 0 mm 3 mps 753 mmHg 57%
19:00 +29°C° 0 mm 2 mps 753 mmHg 64%
20:00 +27°C° 0 mm 2 mps 753 mmHg 72%
21:00 +26°C° 0 mm 2 mps 753 mmHg 73%
22:00 +26°C° 0 mm 2 mps 753 mmHg 75%
23:00 +25°C° 0 mm 1 mps 753 mmHg 76%
Show more